UmKA 1 (RS40S)
1 57172U 23091G   26026.81469876  .00009794  00000-0  47136-3 0  9995
2 57172  97.5273  86.0899 0011885 250.3840 109.6111 15.18919106142537
CubeBel-2 (EU11S)
1 57175U 23091K   26026.80765894  .00017637  00000-0  69840-3 0  9997
2 57175  97.5267  88.9957 0009396 251.2776 108.7442 15.25451171142720
RS-38S
1 57189U 23091Z   26026.82815178  .00023935  00000-0  79736-3 0  9998
2 57189  97.5290  93.8615 0007495 206.7272 153.3584 15.31086066143022
SONATE-2
1 59112U 24043Q   26026.62296498  .00041311  00000-0  78610-3 0  9998
2 59112  97.5344 169.6534 0008491   6.1363 353.9989 15.48078784105911
MO-122
1 60209U 24125G   26026.13638449  .00054234  00000-0  96913-3 0  9994
2 60209  97.2498 241.6372 0014635  25.8562 334.3418 15.49737275 87472
GRBBeta
1 60237U 24128C   26026.86437773  .00007310  00000-0  50654-3 0  9990
2 60237  61.9918 351.6332 0054521 105.4041 255.3084 15.05277531 84981
Curium One
1 60242U 24128H   26026.38145903  .00013817  00000-0  83207-3 0  9993
2 60242  61.9810 347.0911 0054545 101.9845 258.7371 15.09841893 85023
ROBUSTA-3A
1 60243U 24128J   26026.33910857  .00013820  00000-0  84823-3 0  9996
2 60243  61.9886 348.9805 0054810  99.4375 261.2920 15.09143705 84994
CatSat
1 60246U 24125J   26026.82790787  .00054724  00000-0  11514-2 0  9992
2 60246  97.2270 238.8390 0030784 346.0768  13.9629 15.44603748 85472
HYPERVIEW-1G (RS66S)
1 61772U 24199AP  26026.86874344  .00073192  00000-0  11823-2 0  9997
2 61772  97.3161 262.0035 0011712  75.7232 284.5321 15.52546849112602
AO-123
1 61781U 24199AY  26026.85697522  .00015221  00000-0  47614-3 0  9994
2 61781  97.3216 256.8386 0016055  93.6844 266.6235 15.33099449112250
HADES-R (SO-124)
1 62690U 25009CK  26026.18254824  .01001461  43203-3  32071-2 0  9992
2 62690  97.3706 116.2664 0007330 295.6648  64.3868 15.91046623 57752
HYDRA-T
1 62692U 25009CM  26026.46623774  .02622399  95090-2  32489-2 0  9992
2 62692  97.3650 117.1065 0009324 299.9738  60.0620 16.10173828 57837
JINJUSat 1B
1 63210U 25052A   26026.52686037  .00024417  00000-0  88160-3 0  9993
2 63210  97.4170 283.4533 0002105 200.1954 159.9202 15.28481160 48421
NUSHSAT 1
1 63211U 25052B   26026.42173303  .00028721  00000-0  99363-3 0  9999
2 63211  97.4153 283.5400 0001786 203.5452 156.5707 15.29845393 48427
TEVEL2-4
1 63213U 25052D   26026.64053873  .00026155  00000-0  92807-3 0  9999
2 63213  97.4076 283.2123 0000684 231.1370 128.9809 15.29037970 48446
TEVEL2-5
1 63214U 25052E   26026.64849447  .00026089  00000-0  92853-3 0  9997
2 63214  97.4073 283.2008 0000724 231.4967 128.6208 15.28940254 48443
TEVEL2-6
1 63215U 25052F   26026.65715017  .00026448  00000-0  94251-3 0  9997
2 63215  97.4075 283.1965 0000823 237.4730 122.6431 15.28896027 48441
TEVEL2-1
1 63217U 25052H   26026.64455436  .00026225  00000-0  94524-3 0  9990
2 63217  97.4051 282.9557 0000903 290.0321  70.0822 15.28524564 48434
TEVEL2-3
1 63218U 25052J   26026.64301243  .00025654  00000-0  92395-3 0  9996
2 63218  97.4050 282.9626 0000939 291.6659  68.4480 15.28553440 48437
TEVEL2-2
1 63219U 25052K   26026.64526144  .00026251  00000-0  94605-3 0  9996
2 63219  97.4032 282.9589 0001078 287.5958  72.5164 15.28528163 48436
TEVEL2-9
1 63237U 25052AD  26026.26053351  .00025264  00000-0  95617-3 0  9996
2 63237  97.4113 282.2143 0005034 295.6142  64.4577 15.26910561 48338
TEVEL2-7
1 63238U 25052AE  26026.67254360  .00023632  00000-0  89920-3 0  9992
2 63238  97.4115 282.5874 0005165 294.8956  65.1745 15.26746081 48399
TEVEL2-8
1 63239U 25052AF  26026.67892346  .00023429  00000-0  89216-3 0  9997
2 63239  97.4108 282.5771 0005090 295.5899  64.4813 15.26721716 48395
HYDRA-W
1 63490U 25052BL  26026.25639920  .00146156  00000-0  25725-2 0  9994
2 63490  97.4019 285.9197 0002952 283.9385  76.1537 15.49920442 48596
HADES-ICM (SO-125)
1 63492U 25052BN  26026.19292477  .00115364  00000-0  22787-2 0  9993
2 63492  97.4023 285.4231 0004019 290.6402  69.4416 15.46711915 48555
Dragonfly
1 65729U 98067XH  26026.72602941  .01295179  10371-2  15757-2 0  9991
2 65729  51.6097 261.2856 0007445 207.9625 152.0989 16.07613996 20295
RSP-03
1 65732U 98067XL  26026.74933255  .00424302  00000-0  14672-2 0  9994
2 65732  51.6204 264.5262 0005454 175.8657 184.2394 15.87842701 20261
GHS-01
1 65733U 98067XM  26020.92375749  .09795873  12158-4  14287-2 0  9993
2 65733  51.6117 289.2886 0004779 208.5099 151.5664 16.33783644 19418
BOTAN
1 65942U 98067XP  26025.80197135  .00276857  00000-0  16525-2 0  9991
2 65942  51.6217 274.7500 0005177 172.7994 187.3082 15.76521703 16782
CEVROSAT1
1 66309U 25248S   26026.73617182  .00007462  00000-0  36568-3 0  9996
2 66309  45.4032 159.2215 0003495 309.4839  50.5738 15.18757129 12991
SPIRONE
1 66657U 25274H   26026.59303023  .00004218  00000-0  41278-3 0  9991
2 66657  97.7410 318.0451 0013541 121.1590 239.0959 14.92773213  9099
K-HERO
1 66660U 25274L   26026.30462409  .00003743  00000-0  36235-3 0  9997
2 66660  97.7423 317.8130 0015429 126.3216 233.9430 14.93256724  9054
SNUGLITE-III DURI
1 66661U 25274M   26026.29928493  .00003862  00000-0  37259-3 0  9995
2 66661  97.7424 317.8178 0016089 127.4530 232.8156 14.93369383  9051
SilverSat
1 66909U 98067XV  26026.70387857  .00123288  00000-0  14898-2 0  9997
2 66909  51.6290 277.7966 0003426 139.8593 220.2654 15.59807039  8615
SAKHACUBE-CHOLBON
1 67290U 25313AU  26026.81338764  .00016512  00000-0  72790-3 0  9997
2 67290  97.4085 103.8271 0010883 129.0808 231.1398 15.21820046  4458
QMR-KWT
1 67291U 25313AV  26026.81205497  .00021807  00000-0  95447-3 0  9991
2 67291  97.4088 103.8285 0010727 129.1022 231.1169 15.22007148  4450
IO-86
1 40931U          25360.30710720  .00000000  00000-0  12800-3 0    00
2 40931   6.0006 332.5373 0012733 338.8432   8.1437 14.79075515    01
